Change the Weather History Date:

Tuesday, June 18, 2013

  Actual Average Record
Temperature  
Mean Temperature 70 °F 68 °F  
Max Temperature 85 °F 83 °F 100 °F (2012)
Min Temperature 54 °F 53 °F 40 °F (1946)
Degree Days  
Heating Degree Days 0 1  
Month to date heating degree days 29 51  
Since 1 June heating degree days 29 51  
Since 1 July heating degree days 6084 6047  
Cooling Degree Days 5 5  
Month to date cooling degree days 100 59  
Year to date cooling degree days 142 81  
Since 1 June cooling degree days 100 59  
Growing Degree Days 19 (Base 50)    
Moisture  
Dew Point 47 °F    
Average Humidity 58    
Maximum Humidity 89    
Minimum Humidity 26    
Precipitation  
Precipitation 0.06 in 0.06 in 1.50 in (2003)
Month to date precipitation 0.13 1.26  
Year to date precipitation 5.37 6.79  
Snow  
Snow 0.00 in - - ()
Month to date snowfall 0  
Since 1 June snowfall 0  
Since 1 July snowfall 78.4  
Snow Depth 0.00 in    
Sea Level Pressure  
Sea Level Pressure 29.90 in    
Wind  
Wind Speed 13 mph (SE)    
Max Wind Speed 64 mph    
Max Gust Speed 97 mph    
Visibility 10 miles    
Events Rain , Thunderstorm , Tornado    
T = Trace of Precipitation, MM = Missing Value Source: NWS Daily Summary

Daily Weather History Graph

Daily Weather History Graph

Search for Another Location

Airport or City:

Trip Planner

Search our weather history database for the weather conditions in past years. The results will help you decide how hot, cold, wet, or windy it might be!

Date:

Astronomy

Jun. 18, 2013 Rise Set
Actual Time 5:29 AM MDT 8:29 PM MDT
Civil Twilight 4:57 AM MDT 9:02 PM MDT
Nautical Twilight 4:15 AM MDT 9:44 PM MDT
Astronomical Twilight 3:27 AM MDT 10:32 PM MDT
Moon 3:17 PM MDT (6/18) 1:39 AM MDT (6/18)
Length of Visible Light 16h 05m
Length of Day
14h 59m
Waxing Gibbous, 71% of the Moon is Illuminated
Jun 18
Waxing Gibbous
Jun 23
Full
Jun 29
Last Quarter
Jul 8
New
Jul 15
First Quarter

Hourly Weather History & Observations

Time (MDT) Temp. Dew Point Humidity Pressure Visibility Wind Dir Wind Speed Gust Speed Precip Events Conditions
12:53 AM 61.0 °F 39.9 °F 46% 29.93 in 10.0 mi SSW 11.5 mph - N/A   Scattered Clouds
1:53 AM 62.1 °F 42.1 °F 48% 29.94 in 10.0 mi SW 9.2 mph - N/A   Scattered Clouds
2:53 AM 59.0 °F 48.9 °F 69% 29.94 in 10.0 mi West 9.2 mph - N/A   Scattered Clouds
3:53 AM 57.9 °F 51.1 °F 78% 29.94 in 10.0 mi West 13.8 mph - N/A   Scattered Clouds
4:53 AM 55.9 °F 51.1 °F 84% 29.95 in 10.0 mi WNW 9.2 mph - N/A   Scattered Clouds
5:53 AM 54.0 °F 50.0 °F 86% 29.96 in 9.0 mi West 10.4 mph - N/A   Scattered Clouds
6:53 AM 57.0 °F 50.0 °F 77% 29.96 in 9.0 mi West 6.9 mph - N/A   Scattered Clouds
7:53 AM 60.1 °F 51.1 °F 72% 29.98 in 10.0 mi West 9.2 mph - N/A   Partly Cloudy
8:53 AM 64.9 °F 51.1 °F 61% 29.96 in 10.0 mi Variable 3.5 mph - N/A   Partly Cloudy
9:53 AM 69.1 °F 50.0 °F 51% 29.94 in 10.0 mi Calm Calm - N/A   Partly Cloudy
10:53 AM 73.9 °F 50.0 °F 43% 29.90 in 10.0 mi Variable 5.8 mph - N/A   Partly Cloudy
11:53 AM 81.0 °F 46.9 °F 30% 29.85 in 10.0 mi SE 13.8 mph 20.7 mph N/A   Scattered Clouds
12:53 PM 82.9 °F 45.0 °F 26% 29.80 in 10.0 mi SE 16.1 mph 23.0 mph N/A   Scattered Clouds
1:53 PM 82.0 °F 42.1 °F 24% 29.78 in 10.0 mi South 8.1 mph 16.1 mph N/A Thunderstorm Thunderstorm
2:20 PM 69.8 °F 44.6 °F 40% 30.03 in 5.0 mi ENE 23.0 mph 32.2 mph 0.04 in Rain , Thunderstorm , Tornado Funnel Cloud
2:21 PM 69.8 °F 42.8 °F 38% 30.03 in 5.0 mi ENE 25.3 mph 32.2 mph 0.05 in Rain , Thunderstorm , Tornado Funnel Cloud
2:22 PM 69.8 °F 44.6 °F 40% 30.02 in 5.0 mi ENE 24.2 mph 32.2 mph 0.05 in Rain , Thunderstorm , Tornado Funnel Cloud
2:32 PM 71.6 °F 46.4 °F 41% 30.01 in 7.0 mi East 29.9 mph - 0.05 in Rain , Thunderstorm , Tornado Funnel Cloud
2:37 PM 75.2 °F 39.2 °F 27% 30.02 in 9.0 mi East 29.9 mph - 0.05 in Rain , Thunderstorm Light Thunderstorms and Rain
2:50 PM 71.6 °F 48.2 °F 43% 30.03 in 10.0 mi East 13.8 mph - 0.05 in Thunderstorm Thunderstorm
2:53 PM 71.1 °F 52.0 °F 51% 29.83 in 10.0 mi East 13.8 mph 23.0 mph 0.05 in Thunderstorm Thunderstorm
3:10 PM 75.2 °F 48.2 °F 38% 30.01 in 10.0 mi East 18.4 mph - N/A   Mostly Cloudy
3:53 PM 79.0 °F 43.0 °F 28% 29.77 in 10.0 mi ESE 24.2 mph 31.1 mph N/A   Mostly Cloudy
4:53 PM 75.9 °F 46.0 °F 35% 29.78 in 10.0 mi ESE 20.7 mph 29.9 mph N/A   Mostly Cloudy
5:53 PM 77.0 °F 46.9 °F 34% 29.77 in 10.0 mi ESE 25.3 mph 29.9 mph N/A   Mostly Cloudy
6:53 PM 73.0 °F 45.0 °F 37% 29.78 in 10.0 mi SSE 19.6 mph 39.1 mph N/A   Mostly Cloudy
7:53 PM 70.0 °F 46.9 °F 44% 29.75 in 10.0 mi SE 19.6 mph - N/A   Mostly Cloudy
8:48 PM 64.4 °F 46.4 °F 52% 29.96 in 10.0 mi SE 15.0 mph 26.5 mph N/A Thunderstorm Thunderstorm
8:53 PM 64.9 °F 46.9 °F 52% 29.76 in 10.0 mi SE 17.3 mph 23.0 mph N/A Thunderstorm Thunderstorm
9:03 PM 64.4 °F 46.4 °F 52% 29.97 in 10.0 mi SSE 19.6 mph 27.6 mph N/A   Mostly Cloudy
9:13 PM 64.4 °F 46.4 °F 52% 29.97 in 10.0 mi SSE 24.2 mph 31.1 mph N/A Thunderstorm Thunderstorm
9:53 PM 63.0 °F 48.9 °F 60% 29.77 in 10.0 mi SE 13.8 mph - 0.00 in Rain , Thunderstorm Light Thunderstorms and Rain
10:10 PM 62.6 °F 48.2 °F 59% 29.99 in 10.0 mi SE 15.0 mph - 0.01 in Rain Light Rain
10:53 PM 62.1 °F 48.0 °F 60% 29.76 in 10.0 mi ESE 15.0 mph - 0.01 in   Mostly Cloudy
11:53 PM 61.0 °F 46.9 °F 60% 29.80 in 10.0 mi SE 15.0 mph - N/A   Mostly Cloudy